Hourly Weather Kiyaukovo

Today, 29 July, Thursday

Time Temperature Precipitation Wind Pressure Humidity
00:00 +12°C° 0 mm 1 mps 746 mmHg 65%
01:00 +12°C° 0 mm 1 mps 746 mmHg 68%
02:00 +11°C° 0 mm 1 mps 746 mmHg 68%
03:00 +11°C° 0 mm 1 mps 746 mmHg 69%
04:00 +11°C° 0 mm 1 mps 746 mmHg 71%
05:00 +13°C° 0 mm 1 mps 746 mmHg 64%
06:00 +15°C° 0 mm 1 mps 747 mmHg 58%
07:00 +16°C° 0 mm 1 mps 747 mmHg 51%
08:00 +18°C° 0 mm 2 mps 747 mmHg 45%
09:00 +21°C° 0 mm 2 mps 746 mmHg 39%
10:00 +24°C° 0 mm 3 mps 746 mmHg 33%
11:00 +25°C° 0 mm 3 mps 746 mmHg 30%
12:00 +26°C° 0 mm 3 mps 746 mmHg 27%
13:00 +27°C° 0 mm 3 mps 745 mmHg 24%
14:00 +27°C° 0 mm 3 mps 745 mmHg 23%
15:00 +27°C° 0 mm 3 mps 745 mmHg 22%
16:00 +28°C° 0 mm 3 mps 745 mmHg 21%
17:00 +27°C° 0 mm 3 mps 744 mmHg 25%
18:00 +25°C° 0 mm 2 mps 744 mmHg 29%
19:00 +24°C° 0 mm 2 mps 744 mmHg 33%
20:00 +21°C° 0 mm 2 mps 744 mmHg 35%
21:00 +20°C° 0 mm 2 mps 744 mmHg 38%
22:00 +18°C° 0 mm 2 mps 744 mmHg 40%
23:00 +18°C° 0 mm 2 mps 744 mmHg 40%

Tomorrow, 30 July, Friday

Time Temperature Precipitation Wind Pressure Humidity
00:00 +18°C° 0 mm 2 mps 744 mmHg 40%
01:00 +18°C° 0 mm 3 mps 744 mmHg 39%
02:00 +18°C° 0 mm 2 mps 743 mmHg 39%
03:00 +19°C° 0 mm 2 mps 743 mmHg 40%
04:00 +19°C° 0 mm 2 mps 743 mmHg 40%
05:00 +19°C° 0 mm 2 mps 743 mmHg 46%
06:00 +18°C° 0 mm 3 mps 743 mmHg 53%
07:00 +18°C° 0 mm 4 mps 743 mmHg 60%
08:00 +17°C° 0.9 mm 4 mps 743 mmHg 70%
09:00 +17°C° 0.9 mm 4 mps 742 mmHg 80%
10:00 +15°C° 0.9 mm 4 mps 742 mmHg 90%
11:00 +21°C° 0 mm 5 mps 742 mmHg 70%
12:00 +26°C° 0 mm 5 mps 741 mmHg 50%
13:00 +32°C° 0 mm 6 mps 741 mmHg 30%
14:00 +30°C° 0 mm 6 mps 741 mmHg 36%
15:00 +29°C° 0 mm 6 mps 740 mmHg 41%
16:00 +29°C° 0 mm 6 mps 740 mmHg 47%
17:00 +28°C° 0 mm 5 mps 741 mmHg 49%
18:00 +28°C° 0 mm 4 mps 741 mmHg 51%
19:00 +27°C° 0 mm 3 mps 741 mmHg 53%
20:00 +25°C° 0 mm 2 mps 741 mmHg 62%
21:00 +23°C° 0 mm 1 mps 741 mmHg 70%
22:00 +19°C° 0 mm 0 mps 742 mmHg 79%
23:00 +21°C° 0 mm 1 mps 742 mmHg 81%

Day after tomorrow, 31 July, Saturday

Time Temperature Precipitation Wind Pressure Humidity
00:00 +20°C° 0 mm 1 mps 742 mmHg 83%
01:00 +20°C° 0 mm 1 mps 742 mmHg 85%
02:00 +20°C° 0 mm 1 mps 742 mmHg 85%
03:00 +19°C° 0 mm 2 mps 742 mmHg 85%
04:00 +19°C° 0 mm 2 mps 742 mmHg 84%
05:00 +20°C° 0 mm 2 mps 742 mmHg 77%
06:00 +23°C° 0 mm 2 mps 742 mmHg 70%
07:00 +25°C° 0 mm 2 mps 743 mmHg 63%
08:00 +27°C° 0 mm 3 mps 743 mmHg 55%
09:00 +29°C° 0 mm 4 mps 742 mmHg 47%
10:00 +32°C° 0 mm 5 mps 742 mmHg 39%
11:00 +30°C° 0 mm 4 mps 742 mmHg 44%
12:00 +29°C° 0 mm 4 mps 742 mmHg 50%
13:00 +28°C° 0 mm 4 mps 742 mmHg 56%
14:00 +29°C° 0 mm 4 mps 742 mmHg 51%
15:00 +30°C° 0 mm 5 mps 742 mmHg 45%
16:00 +33°C° 0 mm 5 mps 741 mmHg 40%
17:00 +30°C° 0.1 mm 4 mps 741 mmHg 47%
18:00 +29°C° 0.1 mm 3 mps 742 mmHg 53%
19:00 +27°C° 0.1 mm 2 mps 742 mmHg 59%
20:00 +26°C° 0.1 mm 2 mps 742 mmHg 64%
21:00 +24°C° 0.1 mm 2 mps 742 mmHg 68%
22:00 +23°C° 0.1 mm 2 mps 742 mmHg 72%
23:00 +23°C° 0.1 mm 2 mps 742 mmHg 74%

1 August, Sunday

Time Temperature Precipitation Wind Pressure Humidity
00:00 +23°C° 0.1 mm 2 mps 742 mmHg 75%
01:00 +21°C° 0.1 mm 2 mps 742 mmHg 76%
02:00 +21°C° 0.7 mm 2 mps 742 mmHg 81%
03:00 +20°C° 0.7 mm 2 mps 743 mmHg 85%
04:00 +20°C° 0.7 mm 1 mps 743 mmHg 89%
05:00 +21°C° 0.2 mm 1 mps 743 mmHg 87%
06:00 +22°C° 0.2 mm 1 mps 743 mmHg 85%
07:00 +22°C° 0.2 mm 1 mps 743 mmHg 84%
08:00 +24°C° 0.1 mm 2 mps 744 mmHg 74%
09:00 +26°C° 0.1 mm 2 mps 744 mmHg 64%
10:00 +29°C° 0.1 mm 3 mps 744 mmHg 55%
11:00 +30°C° 0 mm 3 mps 744 mmHg 47%
12:00 +32°C° 0 mm 4 mps 744 mmHg 39%
13:00 +33°C° 0 mm 4 mps 744 mmHg 31%
14:00 +33°C° 0 mm 4 mps 744 mmHg 29%
15:00 +34°C° 0 mm 4 mps 744 mmHg 28%
16:00 +34°C° 0 mm 4 mps 743 mmHg 26%
17:00 +33°C° 0 mm 4 mps 744 mmHg 30%
18:00 +30°C° 0 mm 3 mps 744 mmHg 34%
19:00 +29°C° 0 mm 3 mps 744 mmHg 37%
20:00 +27°C° 0 mm 2 mps 744 mmHg 42%
21:00 +25°C° 0 mm 1 mps 744 mmHg 46%
22:00 +23°C° 0 mm 1 mps 745 mmHg 51%
23:00 +22°C° 0 mm 1 mps 745 mmHg 53%

2 August, Monday

Time Temperature Precipitation Wind Pressure Humidity
00:00 +21°C° 0 mm 1 mps 745 mmHg 54%
01:00 +21°C° 0 mm 1 mps 745 mmHg 56%
02:00 +20°C° 0 mm 1 mps 745 mmHg 58%
03:00 +20°C° 0 mm 1 mps 745 mmHg 60%
04:00 +19°C° 0 mm 1 mps 746 mmHg 62%
05:00 +20°C° 0 mm 1 mps 746 mmHg 58%
06:00 +22°C° 0 mm 1 mps 746 mmHg 54%
07:00 +24°C° 0 mm 1 mps 747 mmHg 50%
08:00 +26°C° 0 mm 1 mps 747 mmHg 44%
09:00 +28°C° 0 mm 1 mps 747 mmHg 39%
10:00 +30°C° 0 mm 1 mps 747 mmHg 34%
11:00 +31°C° 0 mm 2 mps 746 mmHg 31%
12:00 +32°C° 0 mm 2 mps 746 mmHg 28%
13:00 +34°C° 0 mm 2 mps 746 mmHg 26%
14:00 +34°C° 0 mm 2 mps 746 mmHg 26%
15:00 +35°C° 0 mm 2 mps 746 mmHg 26%
16:00 +35°C° 0 mm 2 mps 746 mmHg 26%
17:00 +34°C° 0 mm 2 mps 746 mmHg 31%
18:00 +31°C° 0 mm 1 mps 746 mmHg 36%
19:00 +30°C° 0 mm 1 mps 746 mmHg 40%
20:00 +28°C° 0 mm 2 mps 746 mmHg 44%
21:00 +26°C° 0 mm 2 mps 746 mmHg 48%
22:00 +24°C° 0 mm 2 mps 746 mmHg 51%
23:00 +23°C° 0 mm 2 mps 746 mmHg 53%

3 August, Tuesday

Time Temperature Precipitation Wind Pressure Humidity
00:00 +23°C° 0 mm 2 mps 746 mmHg 54%
01:00 +21°C° 0 mm 2 mps 746 mmHg 56%
02:00 +21°C° 0 mm 2 mps 746 mmHg 55%
03:00 +21°C° 0 mm 2 mps 746 mmHg 55%
04:00 +21°C° 0 mm 2 mps 746 mmHg 54%
05:00 +24°C° 0 mm 2 mps 746 mmHg 51%
06:00 +25°C° 0 mm 2 mps 747 mmHg 48%
07:00 +26°C° 0 mm 2 mps 747 mmHg 45%
08:00 +29°C° 0 mm 3 mps 747 mmHg 38%
09:00 +31°C° 0 mm 3 mps 747 mmHg 31%
10:00 +35°C° 0 mm 3 mps 747 mmHg 25%
11:00 +36°C° 0 mm 3 mps 747 mmHg 23%
12:00 +38°C° 0 mm 2 mps 746 mmHg 22%
13:00 +39°C° 0 mm 2 mps 746 mmHg 20%
14:00 +39°C° 0 mm 2 mps 746 mmHg 20%
15:00 +39°C° 0 mm 2 mps 746 mmHg 20%
16:00 +39°C° 0 mm 2 mps 745 mmHg 20%
17:00 +35°C° 0.1 mm 2 mps 746 mmHg 30%
18:00 +31°C° 0.1 mm 3 mps 746 mmHg 41%
19:00 +28°C° 0.1 mm 4 mps 746 mmHg 51%
20:00 +27°C° 0 mm 3 mps 746 mmHg 51%
21:00 +26°C° 0 mm 3 mps 746 mmHg 51%
22:00 +26°C° 0 mm 2 mps 746 mmHg 52%
23:00 +25°C° 0 mm 2 mps 746 mmHg 52%
Show more